TimeCDT,TemperatureF,Dew PointF,Humidity,Sea Level PressureIn,VisibilityMPH,Wind Direction,Wind SpeedMPH,Gust SpeedMPH,PrecipitationIn,Events,Conditions,WindDirDegrees,DateUTC
12:52 AM,87.1,60.1,40,30.02,10.0,SE,6.9,-,N/A,,Clear,130,2013-09-16 05:52:00
1:52 AM,84.9,61.0,44,30.02,10.0,Calm,Calm,-,N/A,,Clear,0,2013-09-16 06:52:00
2:52 AM,84.0,61.0,46,30.02,10.0,ESE,3.5,-,N/A,,Clear,120,2013-09-16 07:52:00
3:52 AM,82.0,62.1,51,30.02,10.0,Calm,Calm,-,N/A,,Clear,0,2013-09-16 08:52:00
4:52 AM,81.0,63.0,54,30.02,10.0,Calm,Calm,-,N/A,,Clear,0,2013-09-16 09:52:00
5:52 AM,81.0,64.0,56,30.03,10.0,SE,3.5,-,N/A,,Clear,140,2013-09-16 10:52:00
5:58 AM,80.6,64.4,58,30.09,10.0,ESE,3.5,-,N/A,,Scattered Clouds,110,2013-09-16 10:58:00
6:52 AM,80.1,64.0,58,30.05,10.0,SSE,3.5,-,N/A,,Scattered Clouds,160,2013-09-16 11:52:00
7:52 AM,80.1,64.9,60,30.07,10.0,South,4.6,-,N/A,,Scattered Clouds,180,2013-09-16 12:52:00
8:52 AM,82.9,66.0,56,30.08,10.0,South,4.6,-,N/A,,Scattered Clouds,170,2013-09-16 13:52:00
9:52 AM,87.1,66.9,51,30.08,10.0,Variable,3.5,-,N/A,,Scattered Clouds,0,2013-09-16 14:52:00
10:52 AM,91.0,64.9,42,30.09,10.0,SE,5.8,-,N/A,,Scattered Clouds,140,2013-09-16 15:52:00
11:52 AM,93.0,64.0,38,30.09,10.0,ESE,4.6,-,N/A,,Scattered Clouds,120,2013-09-16 16:52:00
12:52 PM,95.0,63.0,34,30.07,10.0,South,5.8,-,N/A,,Scattered Clouds,170,2013-09-16 17:52:00
1:52 PM,95.0,60.1,31,30.04,10.0,ESE,9.2,17.3,N/A,,Mostly Cloudy,110,2013-09-16 18:52:00
2:52 PM,97.0,60.1,29,30.01,10.0,East,8.1,-,N/A,,Mostly Cloudy,90,2013-09-16 19:52:00
3:52 PM,98.1,59.0,27,29.99,10.0,Variable,4.6,-,N/A,,Mostly Cloudy,0,2013-09-16 20:52:00
4:52 PM,98.1,51.1,20,29.97,10.0,SE,9.2,-,N/A,,Mostly Cloudy,130,2013-09-16 21:52:00
5:52 PM,96.1,55.9,26,29.96,10.0,SSE,10.4,20.7,N/A,,Mostly Cloudy,150,2013-09-16 22:52:00
6:52 PM,93.9,57.0,29,29.97,10.0,ESE,5.8,-,N/A,,Mostly Cloudy,110,2013-09-16 23:52:00
7:52 PM,93.0,59.0,32,29.98,10.0,ESE,3.5,-,N/A,,Mostly Cloudy,110,2013-09-17 00:52:00
8:52 PM,91.0,59.0,34,30.00,10.0,SSE,5.8,-,N/A,,Mostly Cloudy,150,2013-09-17 01:52:00
9:52 PM,90.0,60.1,37,30.02,10.0,SSE,4.6,-,N/A,,Mostly Cloudy,150,2013-09-17 02:52:00
10:52 PM,89.1,60.1,38,30.03,10.0,SSE,3.5,-,N/A,,Mostly Cloudy,160,2013-09-17 03:52:00
11:52 PM,89.1,60.1,38,30.04,10.0,SSE,3.5,-,N/A,,Overcast,150,2013-09-17 04:52:00